STARLINK-1392, 45677

Orbit data source: Space-Track

STARLINK-1392, 45677 is a payload satellite owned by SpaceX/Seattle (US) in LEO that was launched on Thu, 04 Jun 2020 UTC via an FALCON 9 launch vehicle from the Air Force Eastern Test Range (AFETR). Payload-class satellites include a variety of spacecraft equipped with specific instruments for various scientific and technological missions. These include communications satellites like Starlink; space stations such as the ISS; scientific satellites like the Hubble; Earth observation satellites from companies like Planet Labs, Umbra, and HawkEye 360; GPS; miniature CubeSats for education and research; and military/defense satellites.

Loading next visibility...
Identifier
45677, 2020-035W
Orbit
LEO
Country
Flag of USUS
Related business
Manufacturer
SpaceX/Seattle
Mission
Partially operational Commercial Communications
Bus & Motor
STARLINK, Unknown motor
Mass
260 kg wet, ~248 kg dry
Launch date (UTC)
2020-06-04 (6 years ago)
Launch vehicle
FALCON 9
Launch site
Air Force Eastern Test Range (AFETR)
Object type
Payload
Rocket body
Debris
Shape & HBR
Box + 1 Pan, 10.1 m
Radar Cross Section
13.562 m², Large (>1 m²)

Expand to show TLE details & history
Last TLE update: 10 hours ago

TLE from 10 hours ago
0 STARLINK-1392
1 45677U 20035W   26162.81839274  .00046545  00000-0  11998-2 0  9992
2 45677  53.1538 345.1275 0001764 208.2537 151.8372 15.38757749333202
Epoch: 2026-06-11T19:38Z
TLE epoch observation values (Epoch: 2026-06-11T19:38:29.132Z)
Latitude
-0.00003°
Longitude
150.34936°
Altitude
451.746 km
Speed
7.642 km/s
True Right ascension
23h 00m 30s
True Declination
0° 00' 00"
Sunlit
Object was in daylight at epoch
Visualization orbit readout
Latitude
Unknown
Longitude
Unknown
Altitude
Unknown
Speed
Unknown
Apparent Right ascension
Unknown
Apparent Declination
Unknown
Sunlit
N/A
Visualization observer readout
Local Sidereal Time
15:35:44
Azimuth
Unknown
Elevation
Unknown
Doppler factor
Unknown
Orbital elements
Apogee altitude
451.245 km
Perigee altitude
448.836 km
Semi-major axis
6,828.177 km
Eccentricity
0.00018
Inclination
53.1538°
RAAN
345.1275°
Arg. of periapsis
208.2537°
True anomaly
151.84674°
Mean anomaly
151.8372°
Eccentric anomaly
151.84197°
Mean motion
3.84668 °/min
Orbital period
93.59 mins
BSTAR
0.0011998
Loading maneuver chart data...
Computing Atmospheric mass density...

Documentation

Showing up to 5 results
|